OBJECT H, 61901

Orbit data source: Space-Track

You're viewing an Uncataloged Satellite

Recently launched and/or uncataloged satellites may have evolving metadata. Metadata may include but not limited to: Owner, Maufacturer, Bus, Motor, and Mission.

OBJECT H, 61901 is a satellite owned by Yunyao yuhang (CN) in SSO that was launched on Mon, 11 Nov 2024 UTC via a LIJIAN-1 launch vehicle from the Jiuquan Satellite Launch Center, China (JSC). Unknown objects in Earth's orbit typically refer to objects detected orbiting the Earth but have not yet been identified or cataloged. These objects could be anything from previously untracked satellites, spent rocket stages, debris from satellite collisions, or even natural meteoroids temporarily captured by Earth's gravity.

Loading next visibility...
OBJECT H details
Identifier
61901, 2024-205H
Orbit
SSO
Last TLE update11 hours ago
Origin
Flag of CNYunyao yuhang (CN / PRC)
ManufacturerYunyao yuhang
MissionOperational spacecraft
Bus & MotorYY-1, Unknown motor
Mass~50 kg wet, ~50 kg dry
Launch date (UTC)
2024-11-11 (1 month ago)
Launch vehicle
LIJIAN-1
Launch site
Jiuquan Satellite Launch Center, China (JSC)
Object typeUnknown
Shape & HBRUnknown
Radar Cross SectionMedium (>0.1 m² and <1 m²)

Expand to show TLE details & history

TLE from 11 hours ago
0 OBJECT H
1 61901U 24205H   24348.44610967  .00010484  00000-0  55613-3 0  9998
2 61901  97.4706  60.0638 0014359 168.2611 191.8959 15.15452712  4854
Epoch: 2024-12-13T10:42Z
Definitive object data (Epoch: 2024-12-13T10:42:23.875Z)
Latitude-0.00003°
Longitude176.85235°
Altitude532.381 km
Speed7.591 km/s
True Right ascension04h 00m 15s
True Declination0° 00' 00"
Sunlit
Object was in full shadow at TLE epoch
Visualization TLE readout
Latitude6.86267°
Longitude176.40874°
Altitude531.314 km
Speed7.593 km/s
Apparent Right ascension05h 45m 24s
Apparent Declination-18° 07' 18"
Sunlit
Object is in full shadow
Visualization observer readout
Local Sidereal Time20:21:35
Azimuth68.563° E
Elevation-49.97°
Doppler factor1
Orbital elements
Apogee altitude526.479 km
Perigee altitude506.679 km
Semi-major axis6,894.716 km
Eccentricity0.0014359
Inclination97.4706°
RAAN60.0638°
Arg. of periapsis168.2611°
True anomaly191.86204°
Mean anomaly191.8959°
Eccentric anomaly191.87896°
Mean motion3.79113 °/min
BSTAR0.00055613
Orbital period94.96 mins
Loading maneuver chart data...
Loading historical data...
Loading historical data...
Loading historical data...
Loading historical data...
Loading historical data...
Loading historical data...
Loading historical data...

OBJECT H Visibility forecast

Observer location: undefined°, undefined

Span
Click to sort rows by Start time (UTC) header in descending order
Start Az.
Max El. time (UTC)
Max El. Az.
Max El.
End time (UTC)
End Az.
5 mins2024-12-14 04:16:47.335Z121.61° SE2024-12-14 04:19:47.335Z64.677° ENE21.882°2024-12-14 04:21:47.335Z25.141° NE
4 mins2024-12-14 05:51:47.335Z227.348° WSW2024-12-14 05:53:47.335Z268.63° W20.051°2024-12-14 05:55:47.335Z307.1° NW
5 mins2024-12-14 17:23:47.335Z40.108° NE2024-12-14 17:25:47.335Z87.334° E29.846°2024-12-14 17:28:47.335Z160.476° S
|